This is the latest recevied weather packets stored in our database for station/object SQ6IUS-13. If no packets are shown the sender has not sent any weather packets the latest 10 day(s).
| Time | Temp. | Humidity | Pressure | Rain* | Wind** | Luminosity | Snow |
|---|---|---|---|---|---|---|---|
| 1788431647 | 23.33° C | 90% | 1019.2 hPa | - | - | - | - |
| 1788430745 | 23.89° C | 100% | 1019.2 hPa | - | - | - | - |
| 1788429846 | 23.33° C | 100% | 1019.4 hPa | - | - | - | - |
| 1788428047 | 23.33° C | 100% | 1019.6 hPa | - | - | - | - |
| 1788427148 | 23.89° C | 100% | 1019.6 hPa | - | - | - | - |
| 1788426249 | 21.67° C | 100% | 1019.5 hPa | - | - | - | - |
| 1788425350 | 21.67° C | 100% | 1019.7 hPa | - | - | - | - |
| 1788424451 | 22.22° C | 100% | 1019.8 hPa | - | - | - | - |
| 1788423552 | 21.67° C | 100% | 1019.8 hPa | - | - | - | - |
| 1788420855 | 19.44° C | 100% | 1019.8 hPa | - | - | - | - |
| 1788419756 | 17.22° C | 100% | 1019.8 hPa | - | - | - | - |
| 1788418857 | 16.67° C | 100% | 1020 hPa | - | - | - | - |
| 1788417958 | 16.11° C | 100% | 1020.1 hPa | - | - | - | - |
| 1788417059 | 15.56° C | 100% | 1020.2 hPa | - | - | - | - |
| 1788416160 | 15° C | 100% | 1020.1 hPa | - | - | - | - |
| 1788415260 | 14.44° C | 100% | 1020.4 hPa | - | - | - | - |
| 1788413463 | 12.78° C | 100% | 1020.2 hPa | - | - | - | - |
| 1788412565 | 12.22° C | 100% | 1020.2 hPa | - | - | - | - |
| 1788411665 | 11.11° C | 100% | 1020.3 hPa | - | - | - | - |
| 1788410765 | 10.56° C | 100% | 1020.2 hPa | - | - | - | - |
| 1788409870 | 10.56° C | 100% | 1020.2 hPa | - | - | - | - |
| 1788408967 | 10.56° C | 100% | 1020.1 hPa | - | - | - | - |
| 1788408068 | 10.56° C | 100% | 1020.1 hPa | - | - | - | - |
| 1788407169 | 10.56° C | 100% | 1020.1 hPa | - | - | - | - |
| 1788406270 | 10.56° C | 100% | 1020 hPa | - | - | - | - |
* Rain since midnight (hover to see other rain measurements)
** Current wind speed in m/s (hover to see current wind gust speed)